RH
33 29 30 30 38 26 14 8 4 4 3 2 2 2 2 2 2 2 2 2 1 1 1 1 2 2 2 2 6 5 6 8 9 11 10 10 10 11 13 31 100 100 96 80 67 63 64
40 26 30 28 42 34 16 8 4 4 3 2 2 2 2 2 2 2 2 2 1 1 1 1 1 2 2 2 5 7 6 6 10 12 12 10 10 12 13 16 91 100 100 82 54 78 64
37 23 39 34 42 32 18 10 5 4 3 2 2 2 2 2 2 2 2 2 2 1 1 1 1 1 2 2 4 8 6 6 10 12 14 12 11 11 11 15 32 100 100 95 49 82 87
36 35 48 38 40 32 22 13 8 4 3 3 2 2 2 2 2 2 2 2 2 1 1 1 1 1 2 3 3 4 6 7 8 11 14 14 11 11 11 13 16 98 100 82 82 70 96
40 56 48 42 38 30 26 16 9 5 3 3 2 2 3 2 2 2 2 2 2 2 1 1 1 2 2 3 3 4 6 8 9 14 14 14 12 11 11 12 15 19 100 82 100 99 89
44 64 54 41 37 32 26 18 10 6 4 3 3 3 3 2 3 2 2 2 2 2 2 2 1 2 2 2 3 4 8 11 12 17 12 14 13 10 11 12 14 18 100 100 100 100 90
51 62 54 40 38 32 28 22 11 7 4 4 3 3 3 2 3 3 2 3 3 2 2 2 2 2 2 2 2 3 8 15 10 10 10 12 13 12 14 12 12 14 24 100 100 99 99
58 54 50 35 40 28 29 30 13 8 6 4 4 3 4 3 3 4 3 3 3 2 2 2 3 3 2 2 3 4 7 14 11 11 10 11 13 14 13 11 11 11 15 66 79 97 89
59 55 46 45 41 33 29 34 16 12 7 6 4 4 4 4 3 4 3 4 4 3 2 3 3 4 3 2 4 4 5 11 17 15 13 9 12 15 12 12 11 11 13 20 45 95 100
56 68 46 53 40 30 31 40 33 15 10 6 4 4 4 4 4 4 4 3 4 4 4 3 3 4 5 4 3 4 7 17 21 19 16 12 13 13 14 12 10 11 10 12 16 78 100
60 81 46 52 38 28 32 54 41 20 14 6 5 5 4 4 4 4 4 3 5 4 6 4 4 6 6 6 5 5 7 13 27 24 16 15 15 16 13 13 11 10 10 10 13 30 100
62 74 49 57 38 30 33 48 50 24 20 8 6 5 5 4 4 4 4 4 4 5 6 6 4 6 8 8 7 8 10 12 14 23 19 19 15 14 13 13 12 12 11 11 12 14 54
68 66 68 54 43 32 34 59 65 24 18 10 6 5 5 5 4 5 5 4 5 7 7 9 8 6 9 13 12 11 12 17 24 29 26 19 19 18 16 14 14 14 15 14 13 12 15
61 59 63 51 42 32 34 58 70 46 18 11 7 6 5 5 5 5 5 4 5 6 7 9 11 10 9 14 20 19 16 20 24 27 26 26 23 21 18 17 17 16 16 15 14 13 13
62 57 64 52 42 32 36 53 65 58 26 16 7 6 6 5 5 5 6 5 5 6 8 8 14 15 12 14 17 21 25 27 28 30 33 33 30 28 24 21 17 15 15 17 16 14 12
62 64 68 48 42 34 36 50 66 56 40 17 8 5 5 5 4 5 6 6 5 5 7 9 10 16 16 15 17 19 25 30 33 32 32 36 32 25 20 18 17 17 15 16 15 14 13
61 69 63 47 41 32 32 43 59 61 42 15 9 6 6 6 5 5 6 7 6 5 7 8 10 13 20 18 18 18 18 23 29 34 36 37 31 36 33 26 20 17 16 15 14 14 13
58 66 60 49 38 29 34 38 49 53 40 19 9 6 6 6 6 5 5 7 6 6 8 10 10 12 18 25 22 22 23 24 28 29 27 30 32 32 32 29 25 20 17 15 14 14 14
66 68 54 35 31 31 32 36 54 43 40 18 8 6 6 6 6 5 5 6 7 6 7 9 10 13 15 22 35 39 32 29 30 32 32 34 32 35 31 26 24 24 21 17 16 14 14
66 61 50 32 28 32 32 36 40 52 37 33 11 9 7 6 6 6 4 6 7 7 7 9 11 13 17 17 22 37 41 41 39 32 28 29 31 37 47 38 31 24 20 21 21 18 16
61 51 40 35 28 30 30 33 44 48 35 18 12 8 6 5 5 6 5 5 7 7 7 7 10 13 16 20 20 28 40 46 47 43 43 34 28 26 31 41 42 38 28 22 22 20 17
56 43 36 29 28 28 34 31 39 48 40 20 13 9 6 6 5 5 4 5 6 8 7 7 8 11 14 17 20 22 28 41 58 56 53 46 35 34 29 25 40 44 42 38 24 20 19
46 40 33 30 30 31 31 31 34 44 36 16 12 13 7 8 5 4 4 5 6 8 8 8 8 9 11 15 18 21 26 30 45 54 63 59 50 48 39 30 30 37 37 41 37 30 24
39 39 33 30 31 33 35 28 30 40 42 22 11 10 10 9 5 4 4 5 6 8 8 9 9 9 12 16 18 21 23 24 28 33 43 61 55 52 47 47 39 32 36 42 43 41 53
38 35 33 30 36 38 40 25 23 34 36 22 19 16 12 8 5 4 4 4 5 8 9 9 10 9 10 13 16 19 22 22 22 26 33 46 67 54 56 55 48 43 42 42 37 38 45
38 39 38 34 37 42 37 21 21 30 32 26 16 13 16 7 6 4 4 4 6 8 10 10 10 10 10 11 13 16 19 21 23 23 28 37 59 71 57 63 56 40 51 54 50 50 46
30 38 42 47 46 43 30 23 18 24 24 21 16 14 19 11 5 4 5 5 5 8 10 10 12 11 11 11 12 14 17 19 23 25 28 29 46 71 79 62 58 56 59 60 59 51 56
32 37 43 55 50 38 31 21 20 20 21 20 15 14 15 22 5 3 5 7 6 8 10 11 13 12 11 11 13 14 16 18 18 24 26 28 32 44 82 81 69 60 76 67 54 58 66
37 41 47 60 56 40 28 19 19 18 19 21 20 12 15 16 6 4 5 7 8 8 10 11 13 14 14 13 15 16 18 24 24 23 25 31 32 31 48 78 81 76 68 75 74 65 66
Wind_Speed
77 80 85 90 93 100 107 107 103 101 96 91 88 85 76 73 71 68 65 62 53 38 28 29 35 42 47 55 74 79 81 85 87 93 98 103 105 111 115 124 127 124 120 118 116 111 107
78 80 84 92 93 101 106 107 106 105 100 96 90 87 80 76 76 73 68 63 53 43 35 24 25 34 38 46 64 77 84 84 85 91 96 101 104 110 116 125 127 125 125 123 119 112 111
78 81 87 93 96 101 106 110 109 107 102 98 94 89 81 78 77 73 69 64 55 48 40 30 19 23 34 45 64 77 84 84 86 89 94 100 104 108 114 122 127 129 129 126 119 114 113
79 84 89 93 98 101 105 111 112 109 107 102 98 91 86 79 79 78 72 66 57 49 38 29 15 13 28 44 60 75 79 84 84 85 93 100 103 108 112 119 125 129 131 127 120 118 116
79 85 88 95 97 100 104 110 113 114 111 107 102 96 90 82 80 79 73 67 59 48 35 25 12 9 25 45 58 65 71 83 82 82 88 97 100 102 110 115 124 127 130 126 124 120 119
78 83 88 94 96 101 100 108 113 115 111 109 107 100 92 86 83 80 74 68 62 48 34 23 13 3 19 39 50 59 70 80 84 88 95 94 97 98 104 110 116 119 126 125 125 122 122
77 82 87 92 95 100 100 104 110 113 113 113 110 104 96 90 85 82 75 68 66 51 36 27 17 5 10 27 37 48 66 82 88 89 87 87 89 91 99 106 114 120 126 131 129 126 125
78 81 86 91 95 99 99 102 108 111 112 112 109 105 97 91 87 85 80 72 66 54 38 29 19 10 5 17 30 44 61 78 78 79 79 80 85 91 96 101 109 114 119 128 130 127 126
78 82 86 93 94 98 100 104 105 113 110 109 107 103 97 92 86 83 78 72 67 56 43 32 22 14 6 15 26 34 45 65 77 78 79 75 78 85 90 94 99 108 113 123 128 126 125
76 83 85 92 93 95 101 104 105 110 110 106 104 101 96 92 85 82 75 68 62 56 47 31 25 18 11 7 22 37 47 58 70 75 75 73 71 75 83 88 92 98 107 114 121 126 127
76 81 84 91 92 95 99 105 108 106 109 105 100 97 96 91 85 81 74 67 60 57 50 36 27 22 14 10 12 29 43 56 65 70 68 69 66 70 73 82 85 86 89 101 111 121 127
75 80 83 90 93 95 97 103 109 107 108 105 98 96 93 90 85 78 73 66 61 58 49 43 28 24 22 11 14 20 37 50 57 64 63 67 67 62 62 63 71 73 78 90 99 111 122
74 79 83 89 93 92 96 102 107 107 108 105 98 93 92 88 84 75 72 63 57 52 48 42 34 24 21 19 12 17 29 43 48 54 59 58 58 61 59 59 61 61 69 81 90 98 106
74 78 81 88 91 92 93 99 106 109 106 104 99 91 89 85 80 73 67 60 53 48 45 38 31 24 19 22 15 8 18 30 41 47 51 52 53 53 54 57 59 61 64 72 83 90 97
75 78 81 86 88 91 93 98 103 106 107 105 99 93 88 83 76 70 64 59 50 44 41 35 29 23 18 16 18 15 11 15 25 31 35 38 42 45 47 51 54 56 58 64 72 84 92
73 77 81 86 87 90 91 98 101 104 107 106 98 92 86 81 73 67 59 56 49 41 37 32 28 22 14 11 11 18 18 15 13 20 22 24 27 32 38 40 45 49 54 59 64 73 81
72 77 81 84 86 88 90 95 100 103 108 103 103 97 88 82 77 66 54 50 46 42 37 33 28 23 17 10 7 6 11 14 15 17 17 20 23 22 28 35 39 42 49 52 59 65 73
73 78 80 83 84 87 90 94 98 105 105 103 99 96 87 82 76 66 52 43 42 38 33 29 26 23 17 12 7 3 6 7 9 12 15 18 22 25 27 32 37 41 46 50 55 60 66
74 79 80 82 83 86 89 90 98 104 104 102 100 96 89 82 73 66 53 42 36 34 31 27 24 20 18 13 6 2 2 8 12 14 14 16 19 22 28 32 36 39 41 46 50 56 62
75 78 80 82 82 85 88 92 92 100 104 103 101 97 90 83 75 66 51 41 34 30 28 25 22 20 16 14 13 7 4 5 8 12 18 21 22 24 27 29 31 36 38 41 44 49 56
76 77 81 82 84 85 87 89 94 99 99 95 97 97 86 81 72 63 52 37 32 27 27 23 20 16 16 15 13 12 11 8 8 9 12 15 22 27 29 31 32 33 36 40 44 48 51
76 79 81 83 84 84 87 88 93 102 100 93 97 98 93 82 72 64 54 38 29 25 25 23 20 17 14 14 13 14 13 13 12 13 14 15 15 22 28 31 34 35 37 39 44 46 51
76 80 81 86 87 88 89 90 93 94 99 86 88 97 94 82 70 61 51 39 29 23 23 22 20 19 17 15 15 15 15 16 16 15 15 16 19 19 24 28 33 36 37 38 41 43 45
79 81 82 85 89 90 92 93 92 94 96 90 82 93 95 87 70 59 46 42 31 25 23 21 19 18 17 17 17 17 18 18 18 19 16 15 19 21 22 25 31 35 36 39 41 40 42
81 83 84 87 91 94 98 94 94 95 98 89 86 92 95 83 68 57 47 41 36 28 22 21 20 18 17 18 19 19 19 18 19 19 18 17 16 20 23 25 28 31 33 38 39 41 43
84 87 88 91 95 97 98 96 93 96 100 98 87 85 96 80 69 56 46 41 36 30 24 23 20 19 18 19 20 20 20 20 19 19 19 19 18 18 21 25 27 26 29 31 35 39 42
88 92 93 96 101 101 99 99 96 96 96 95 87 84 89 83 62 49 42 40 35 28 25 24 21 21 20 20 21 21 20 21 22 21 20 21 21 19 20 24 27 24 27 29 32 34 36
92 96 97 99 103 103 104 101 98 98 100 99 90 84 86 87 61 51 39 34 32 27 25 23 22 24 22 22 22 22 22 23 23 23 22 23 23 22 22 24 24 27 28 29 29 30 32
96 100 103 103 107 106 106 104 100 98 100 106 103 83 85 92 62 51 40 33 28 26 23 22 22 25 24 24 25 24 23 23 25 27 24 24 26 26 26 25 24 25 25 30 30 31 32
Wind_Direction
344 346 348 350 348 344 343 341 343 348 352 352 353 353 350 349 346 346 342 338 332 325 303 277 258 246 234 220 213 215 214 215 212 213 212 212 213 211 209 209 214 217 216 217 218 218 220
344 347 348 348 347 346 342 341 343 347 351 353 352 355 353 354 351 350 347 345 341 338 330 308 263 244 230 216 213 212 213 214 212 211 212 211 213 210 208 210 211 216 218 218 217 218 220
343 346 347 348 348 346 342 341 342 347 353 354 353 355 354 357 355 354 353 351 349 343 335 324 288 241 217 206 204 209 211 211 210 209 212 211 211 211 210 209 209 214 218 219 218 217 220
343 347 346 349 348 345 344 341 344 347 353 356 354 357 356 359 359 357 358 356 355 348 338 331 307 236 211 201 205 211 208 209 211 209 210 211 211 211 210 209 210 211 218 219 219 219 220
344 346 346 347 346 347 348 343 343 345 351 355 354 355 357 360 1 360 360 0 1 353 347 344 332 223 206 201 203 209 209 208 209 210 212 212 212 212 211 210 210 211 217 219 219 220 222
343 345 346 347 346 348 350 345 343 345 349 354 354 355 358 360 1 2 2 4 5 359 357 3 359 276 203 201 203 202 204 207 209 207 212 210 213 212 213 211 212 211 213 219 221 221 223
342 344 344 346 346 349 350 350 344 345 349 353 354 355 358 359 0 2 3 7 9 4 10 13 18 21 190 197 201 201 199 205 211 212 213 211 212 213 213 212 212 212 212 214 220 221 223
341 343 344 346 347 349 352 352 347 345 349 352 354 354 357 358 0 0 3 8 12 9 15 22 32 35 165 185 192 196 198 205 213 216 217 212 212 213 214 214 214 214 213 215 219 222 224
339 341 343 344 348 348 353 355 350 347 349 354 354 355 356 357 360 359 2 6 10 12 19 25 30 47 56 167 175 191 201 205 211 215 218 217 214 214 216 216 216 215 215 215 220 221 225
337 340 342 343 347 348 350 356 356 349 350 355 355 353 355 356 358 359 1 6 10 13 20 26 35 42 71 110 179 187 187 201 209 217 219 221 219 218 217 220 219 217 217 219 219 221 222
336 339 340 342 344 348 351 357 357 351 351 356 356 354 354 356 356 358 359 5 9 14 18 23 43 47 58 114 158 187 184 193 204 216 222 223 222 222 221 222 222 221 220 221 221 220 223
336 336 341 341 342 346 351 357 356 352 351 355 357 354 352 352 354 356 357 1 7 14 16 20 33 59 54 74 147 170 182 195 207 211 219 223 227 225 227 226 226 224 223 224 224 222 223
333 334 339 339 340 346 351 356 356 354 352 353 356 355 352 351 351 354 355 358 4 10 16 18 24 37 65 64 123 161 182 193 205 211 222 225 229 230 230 226 225 221 222 223 225 225 223
329 333 338 337 340 345 349 356 355 354 351 352 355 354 352 351 349 350 351 356 1 6 12 19 24 36 68 77 82 133 180 193 202 211 218 226 232 234 234 232 229 225 222 223 223 224 222
327 332 335 336 339 345 348 355 355 355 350 350 352 354 349 348 348 347 348 351 357 2 7 15 25 29 45 78 96 112 153 192 205 210 218 224 228 232 234 233 232 229 226 225 225 223 225
325 329 333 335 339 343 347 352 354 355 350 349 350 352 350 348 348 346 345 346 351 357 2 9 18 27 48 70 112 127 133 150 173 201 209 211 217 222 223 225 228 230 227 227 227 225 226
324 327 331 334 337 341 347 351 354 352 352 348 348 349 347 346 344 344 344 341 345 350 354 1 8 16 25 51 79 118 148 162 167 177 188 195 202 206 209 213 218 222 224 226 226 224 224
323 326 329 331 335 338 345 352 354 351 352 349 348 346 345 344 342 340 342 340 340 343 347 351 357 2 8 17 42 106 153 184 194 196 196 197 198 200 203 211 216 219 221 223 223 223 224
321 323 327 330 334 338 344 352 354 353 351 348 346 343 343 344 342 338 339 338 335 336 339 342 347 350 354 355 3 22 162 199 204 213 215 211 207 209 210 213 213 219 220 220 222 221 222
319 321 324 328 333 337 343 348 353 352 350 348 344 342 343 342 339 338 335 334 331 333 332 331 334 336 336 337 335 321 278 223 208 213 217 216 215 210 214 218 221 222 220 221 221 222 222
314 318 322 328 331 336 343 348 352 354 352 346 341 338 340 342 340 339 335 333 326 327 326 323 322 320 320 312 308 312 303 292 271 245 228 229 221 215 218 219 220 222 225 221 220 221 223
312 317 323 325 331 335 342 346 349 352 351 347 341 334 335 340 340 337 334 326 323 322 320 317 311 307 300 298 294 284 289 287 283 276 271 249 238 231 227 221 220 223 220 221 224 222 223
311 316 322 327 330 334 339 344 349 354 353 346 340 335 332 339 336 334 332 321 321 314 310 309 306 301 297 291 289 286 282 280 277 273 274 266 250 243 239 232 225 222 226 225 224 224 226
311 317 322 325 329 332 336 342 346 350 350 349 341 333 331 337 335 332 328 318 317 307 307 304 298 289 286 281 281 278 276 272 270 273 270 268 260 247 243 239 233 230 223 226 228 227 223
312 316 322 325 328 330 334 339 345 349 350 350 344 335 332 339 337 332 326 318 313 309 301 296 291 290 280 271 265 265 267 270 264 264 269 269 271 257 245 241 237 234 230 229 230 230 229
312 316 322 324 325 329 331 338 343 345 348 351 343 334 332 334 335 326 323 318 314 309 300 292 289 280 274 272 267 263 262 263 265 265 262 262 265 268 258 245 242 235 231 229 229 230 232
312 316 319 322 324 327 330 334 341 344 350 351 341 336 333 330 333 323 323 320 314 308 299 291 292 283 273 269 268 266 264 265 261 260 256 255 255 260 261 255 252 244 235 230 229 229 231
312 315 318 321 322 325 328 333 338 342 347 352 346 335 331 340 333 322 324 323 315 310 301 295 287 281 281 278 273 269 266 264 263 260 257 255 251 247 251 253 252 249 240 237 235 231 230
311 313 316 318 319 323 326 331 336 339 348 353 346 336 331 335 332 319 326 324 319 315 307 298 288 281 276 276 274 275 271 264 262 262 253 252 253 251 245 248 246 250 248 246 242 236 230